• In Moldova, Republic
  • List of Countries
  • For 7 days
  • Water Temperature
  • Satellite Maps
  • Weather Map
  • Weather Widgets
  • user-avatar
    Login

    Hourly Weather Gjirokaster

    Today, 29 May, Monday

    Time Temperature Precipitation Wind Pressure Humidity
    00:00 +7°C° 0 mm 2 mps 653 mmHg 84%
    01:00 +6°C° 0 mm 2 mps 653 mmHg 85%
    02:00 +6°C° 0 mm 2 mps 652 mmHg 85%
    03:00 +6°C° 0 mm 2 mps 652 mmHg 85%
    04:00 +6°C° 0 mm 2 mps 652 mmHg 85%
    05:00 +9°C° 0 mm 1 mps 653 mmHg 80%
    06:00 +11°C° 0 mm 1 mps 653 mmHg 75%
    07:00 +13°C° 0 mm 1 mps 653 mmHg 68%
    08:00 +14°C° 0 mm 1 mps 654 mmHg 61%
    09:00 +16°C° 0 mm 1 mps 654 mmHg 55%
    10:00 +19°C° 0 mm 1 mps 655 mmHg 48%
    11:00 +18°C° 0.4 mm 2 mps 654 mmHg 51%
    12:00 +17°C° 0.4 mm 2 mps 654 mmHg 53%
    13:00 +17°C° 0 mm 3 mps 654 mmHg 55%
    14:00 +17°C° 0.5 mm 2 mps 654 mmHg 58%
    15:00 +16°C° 0.5 mm 2 mps 654 mmHg 60%
    16:00 +16°C° 0.5 mm 2 mps 653 mmHg 62%
    17:00 +14°C° 0.3 mm 2 mps 653 mmHg 69%
    18:00 +12°C° 0.3 mm 2 mps 652 mmHg 76%
    19:00 +9°C° 0.3 mm 2 mps 652 mmHg 83%
    20:00 +9°C° 0.3 mm 1 mps 652 mmHg 84%
    21:00 +9°C° 0.3 mm 1 mps 652 mmHg 85%
    22:00 +8°C° 0.3 mm 1 mps 652 mmHg 86%
    23:00 +8°C° 0.1 mm 1 mps 652 mmHg 86%

    Tomorrow, 30 May, Tuesday

    Time Temperature Precipitation Wind Pressure Humidity
    00:00 +7°C° 0.1 mm 1 mps 652 mmHg 87%
    01:00 +7°C° 0.1 mm 1 mps 652 mmHg 87%
    02:00 +7°C° 0 mm 1 mps 651 mmHg 87%
    03:00 +6°C° 0 mm 0 mps 651 mmHg 88%
    04:00 +5°C° 0 mm 0 mps 651 mmHg 88%
    05:00 +8°C° 0 mm 0 mps 652 mmHg 81%
    06:00 +10°C° 0 mm 0 mps 653 mmHg 75%
    07:00 +13°C° 0 mm 0 mps 654 mmHg 68%
    08:00 +15°C° 0.2 mm 1 mps 654 mmHg 64%
    09:00 +16°C° 0.2 mm 1 mps 654 mmHg 61%
    10:00 +18°C° 0.2 mm 1 mps 655 mmHg 57%
    11:00 +17°C° 0.5 mm 2 mps 655 mmHg 58%
    12:00 +17°C° 0.5 mm 2 mps 655 mmHg 59%
    13:00 +17°C° 0.5 mm 2 mps 655 mmHg 60%
    14:00 +17°C° 0.3 mm 2 mps 655 mmHg 61%
    15:00 +17°C° 0.3 mm 2 mps 654 mmHg 62%
    16:00 +16°C° 0.3 mm 2 mps 654 mmHg 62%
    17:00 +14°C° 0 mm 2 mps 654 mmHg 69%
    18:00 +12°C° 0 mm 1 mps 654 mmHg 76%
    19:00 +10°C° 0 mm 1 mps 653 mmHg 83%
    20:00 +9°C° 0 mm 1 mps 653 mmHg 83%
    21:00 +8°C° 0 mm 1 mps 653 mmHg 84%
    22:00 +6°C° 0 mm 0 mps 654 mmHg 84%
    23:00 +6°C° 0 mm 0 mps 653 mmHg 84%

    Day after tomorrow, 31 May, Wednesday

    Time Temperature Precipitation Wind Pressure Humidity
    00:00 +6°C° 0 mm 0 mps 653 mmHg 85%
    01:00 +5°C° 0 mm 0 mps 653 mmHg 85%
    02:00 +5°C° 0 mm 0 mps 653 mmHg 85%
    03:00 +6°C° 0 mm 1 mps 653 mmHg 85%
    04:00 +6°C° 0 mm 1 mps 653 mmHg 85%
    05:00 +9°C° 0 mm 1 mps 654 mmHg 76%
    06:00 +11°C° 0 mm 1 mps 654 mmHg 67%
    07:00 +14°C° 0 mm 1 mps 655 mmHg 58%
    08:00 +15°C° 0 mm 1 mps 656 mmHg 54%
    09:00 +17°C° 0 mm 2 mps 656 mmHg 49%
    10:00 +18°C° 0 mm 2 mps 656 mmHg 45%
    11:00 +19°C° 0 mm 2 mps 656 mmHg 44%
    12:00 +19°C° 0 mm 2 mps 656 mmHg 44%
    13:00 +20°C° 0 mm 3 mps 656 mmHg 44%
    14:00 +19°C° 0 mm 3 mps 656 mmHg 47%
    15:00 +19°C° 0 mm 3 mps 656 mmHg 50%
    16:00 +19°C° 0 mm 3 mps 655 mmHg 52%
    17:00 +16°C° 0 mm 2 mps 655 mmHg 63%
    18:00 +14°C° 0 mm 2 mps 654 mmHg 74%
    19:00 +11°C° 0 mm 1 mps 654 mmHg 85%
    20:00 +10°C° 0 mm 1 mps 654 mmHg 85%
    21:00 +9°C° 0 mm 1 mps 654 mmHg 86%
    22:00 +8°C° 0 mm 1 mps 654 mmHg 87%
    23:00 +8°C° 0 mm 1 mps 654 mmHg 87%

    1 June, Thursday

    Time Temperature Precipitation Wind Pressure Humidity
    00:00 +8°C° 0 mm 1 mps 653 mmHg 87%
    01:00 +8°C° 0 mm 1 mps 653 mmHg 86%
    02:00 +8°C° 0 mm 1 mps 653 mmHg 84%
    03:00 +8°C° 0 mm 1 mps 653 mmHg 82%
    04:00 +8°C° 0 mm 1 mps 653 mmHg 79%
    05:00 +10°C° 0 mm 1 mps 654 mmHg 70%
    06:00 +13°C° 0 mm 1 mps 654 mmHg 61%
    07:00 +16°C° 0 mm 1 mps 655 mmHg 52%
    08:00 +18°C° 0 mm 1 mps 656 mmHg 48%
    09:00 +20°C° 0 mm 1 mps 656 mmHg 43%
    10:00 +21°C° 0 mm 2 mps 656 mmHg 39%
    11:00 +21°C° 0 mm 2 mps 656 mmHg 39%
    12:00 +22°C° 0 mm 3 mps 656 mmHg 39%
    13:00 +22°C° 0 mm 3 mps 656 mmHg 39%
    14:00 +22°C° 0 mm 3 mps 656 mmHg 42%
    15:00 +21°C° 0 mm 3 mps 656 mmHg 45%
    16:00 +20°C° 0 mm 3 mps 655 mmHg 48%
    17:00 +18°C° 0 mm 3 mps 655 mmHg 58%
    18:00 +14°C° 0 mm 3 mps 654 mmHg 69%
    19:00 +13°C° 0 mm 2 mps 654 mmHg 79%
    20:00 +12°C° 0 mm 2 mps 654 mmHg 80%
    21:00 +10°C° 0 mm 2 mps 654 mmHg 81%
    22:00 +10°C° 0 mm 1 mps 654 mmHg 83%
    23:00 +10°C° 0 mm 1 mps 653 mmHg 83%

    2 June, Friday

    Time Temperature Precipitation Wind Pressure Humidity
    00:00 +9°C° 0 mm 1 mps 653 mmHg 83%
    01:00 +9°C° 0 mm 1 mps 653 mmHg 83%
    02:00 +9°C° 0 mm 1 mps 653 mmHg 81%
    03:00 +9°C° 0 mm 1 mps 653 mmHg 80%
    04:00 +7°C° 0 mm 2 mps 652 mmHg 79%
    05:00 +11°C° 0 mm 1 mps 653 mmHg 70%
    06:00 +14°C° 0 mm 1 mps 654 mmHg 61%
    07:00 +18°C° 0 mm 1 mps 655 mmHg 52%
    08:00 +20°C° 0 mm 1 mps 655 mmHg 48%
    09:00 +21°C° 0 mm 2 mps 656 mmHg 44%
    10:00 +23°C° 0 mm 2 mps 656 mmHg 41%
    11:00 +24°C° 0.1 mm 2 mps 656 mmHg 41%
    12:00 +24°C° 0.1 mm 3 mps 656 mmHg 42%
    13:00 +24°C° 0.1 mm 3 mps 655 mmHg 43%
    14:00 +22°C° 0.1 mm 3 mps 655 mmHg 46%
    15:00 +22°C° 0.1 mm 3 mps 655 mmHg 48%
    16:00 +21°C° 0.1 mm 3 mps 655 mmHg 51%
    17:00 +19°C° 0.1 mm 3 mps 654 mmHg 61%
    18:00 +16°C° 0.1 mm 2 mps 653 mmHg 71%
    19:00 +14°C° 0.1 mm 2 mps 653 mmHg 81%
    20:00 +13°C° 0.1 mm 2 mps 653 mmHg 83%
    21:00 +12°C° 0.1 mm 2 mps 653 mmHg 85%
    22:00 +11°C° 0.1 mm 1 mps 653 mmHg 87%
    23:00 +11°C° 0.1 mm 1 mps 652 mmHg 87%

    3 June, Saturday

    Time Temperature Precipitation Wind Pressure Humidity
    00:00 +10°C° 0.1 mm 1 mps 652 mmHg 88%
    01:00 +10°C° 0.1 mm 1 mps 651 mmHg 88%
    02:00 +10°C° 0 mm 1 mps 651 mmHg 88%
    03:00 +10°C° 0 mm 1 mps 651 mmHg 89%
    04:00 +9°C° 0 mm 1 mps 651 mmHg 89%
    05:00 +12°C° 0 mm 1 mps 652 mmHg 80%
    06:00 +15°C° 0 mm 1 mps 653 mmHg 72%
    07:00 +19°C° 0 mm 1 mps 654 mmHg 64%
    08:00 +20°C° 0.1 mm 1 mps 654 mmHg 59%
    09:00 +20°C° 0.1 mm 2 mps 654 mmHg 55%
    10:00 +21°C° 0.1 mm 2 mps 654 mmHg 50%
    11:00 +21°C° 0.2 mm 2 mps 654 mmHg 49%
    12:00 +22°C° 0.2 mm 3 mps 654 mmHg 48%
    13:00 +22°C° 0.2 mm 3 mps 654 mmHg 47%
    14:00 +21°C° 0.2 mm 3 mps 653 mmHg 49%
    15:00 +21°C° 0.2 mm 3 mps 653 mmHg 51%
    16:00 +21°C° 0.2 mm 3 mps 653 mmHg 53%
    17:00 +18°C° 0.1 mm 3 mps 653 mmHg 62%
    18:00 +16°C° 0.1 mm 2 mps 652 mmHg 71%
    19:00 +14°C° 0.1 mm 2 mps 652 mmHg 79%
    20:00 +13°C° 0.1 mm 2 mps 652 mmHg 81%
    21:00 +12°C° 0.1 mm 2 mps 652 mmHg 82%
    22:00 +11°C° 0.1 mm 1 mps 652 mmHg 84%
    23:00 +11°C° 0.1 mm 1 mps 651 mmHg 84%
    Show more